Regional Weather Roundup
Issued by NWS

Home | Current Version | Previous Version | Graphics & Text | Print | Product List | Glossary On
Versions: 1 2 3 4 5 6 7 8 9 10 11 12 13 14 15 16 17 18 19 20 21 22 23 24 25 26 27
000
ASUS45 KBOI 311410
RWRID
WEATHER ROUNDUP FOR IDAHO
NATIONAL WEATHER SERVICE BOISE ID
800 AM MDT FRI OCT 31 2014

NOTE: "FAIR" INDICATES FEW OR NO CLOUDS BELOW 12000 FEET
WITH NO SIGNIFICANT WEATHER AND/OR OBSTRUCTIONS TO VISIBILITY

IDZ012-014-311500-
SOUTHWEST IDAHO


CITY           SKY/WX    TMP DP  RH WIND       PRES   REMARKS
BOISE          MOCLDY    48  36  63 CALM      29.79R
CALDWELL       MOCLDY    45  34  65 W3        29.82R
MOUNTAIN HOME  MOCLDY    56  29  36 E22       29.80S
$$

IDZ016-017-311500-
SOUTHCENTRAL IDAHO


CITY           SKY/WX    TMP DP  RH WIND       PRES   REMARKS
BURLEY         CLOUDY    43  31  62 CALM      29.90F
JEROME         CLOUDY    47  29  49 NE15      29.88F
TWIN FALLS     CLOUDY    60  25  26 S12       29.86F
$$

IDZ019>023-311500-
SOUTHEAST IDAHO


CITY           SKY/WX    TMP DP  RH WIND       PRES   REMARKS
IDAHO FALLS    PTCLDY    33  28  81 N6        29.98F WCI  28
POCATELLO      CLEAR     40  31  70 SE6       29.95F
REXBURG        CLEAR     34  28  79 NE7       30.00F WCI  28
$$

IDZ006-010-011-018-031-032-311500-
CENTRAL IDAHO MOUNTAINS


CITY           SKY/WX    TMP DP  RH WIND       PRES   REMARKS
MCCALL         PTCLDY    33  30  88 CALM      29.82S
HAILEY         PTCLDY    41  28  60 NW9       29.98F
STANLEY          N/A     29  25  85 CALM      29.95F
SALMON         PTCLDY    30  28  93 S3        29.92F
CHALLIS        MOCLDY    33  29  85 CALM      29.95F
$$

IDZ002-004-006-007-026-311500-
NORTHERN IDAHO


CITY           SKY/WX    TMP DP  RH WIND       PRES   REMARKS
LEWISTON       CLOUDY    50  47  89 CALM      29.74S
LOWELL           N/A     46  45  96 VRB3      29.77F
COEUR D`ALENE  CLOUDY    46  43  87 CALM      29.74S
MULLAN PASS    CLOUDY    41  34  76 S9        29.81F
$$



USA.gov is the U.S. government's official web portal to all federal, state and local government web resources and services.